Location: Dixon
(37.9953°N, 92.0959°W)
Time: 05:22:48
(UTC+00:00)

ARIANE 6 FM1 Upper Stage - Visible Passes

Search period start: 09 December 2025 00:00
Search period end: 19 December 2025 00:00
Orbit: 522 x 611 km, 62.0° (Epoch: 08 December)

Date Brightness Start Highest point End Pass type
(mag) Time Alt. Az. Time Alt. Az. Time Alt. Az.
13 Dec 6.1 11:19:22 10° SE 11:20:43 11° ESE 11:22:05 10° E visible
14 Dec 5.5 11:18:10 10° SSE 11:20:59 18° ESE 11:23:45 10° ENE visible
15 Dec 4.7 11:17:45 10° S 11:21:15 28° ESE 11:24:41 10° ENE visible
16 Dec 3.7 11:17:40 10° SSW 11:21:33 43° ESE 11:25:22 10° NE visible
17 Dec 2.8 11:20:17 35° SSW 11:21:53 70° ESE 11:25:52 10° NE visible
18 Dec 2.6 11:22:42 65° N 11:22:42 65° N 11:26:14 10° NNE visible
